{"data":{"norad_id":58840,"intl_designator":"2024-017Q","name":"STARLINK-31248","alt_names":[],"object_type":"PAYLOAD","status":"ACTIVE","operator":null,"country":"US","launch_date":"2024-01-24","launch_site_code":"AFWTR","launch_vehicle":null,"mission":null,"orbit_class":"UNKNOWN","rcs_meters":null,"size_class":null,"mass_kg":null,"dimensions":null,"purposes":["comms"],"wikipedia_slug":null,"has_3d_model":false,"image_url":null,"decayed_at":null,"tle_current":{"epoch":"2026-05-25T04:34:59.026944Z","epoch_age_seconds":58609,"freshness":"FRESH","line1":"1 58840U 24017Q   26145.19096096  .00001395  00000+0  52432-4 0  9994","line2":"2 58840  53.1600 220.6932 0000702 101.5126 258.5956 15.34389608131711","mean_motion":15.34389608,"eccentricity":7.02e-5,"inclination_deg":53.16,"raan_deg":220.6932,"arg_perigee_deg":101.5126,"mean_anomaly_deg":258.5956,"bstar":5.2432e-5,"rev_number":13171,"period_min":93.848393686462,"perigee_km":462.25389844229,"apogee_km":463.2143567486,"semimajor_km":6840.8711275954,"source":"CELESTRAK","updated_at":"2026-05-25T13:38:18.755497Z"}}}